Погода в Сухане

Погода в Сухане : погода сейчас, прогноз погоды и архив. Всё, что Вы хотите узнать о погоде в Сухане!

Поиск расширенной информации на нашем сайте:

Полезная информация: Купить 2 комнатную квартиру купить квартиру в Костроме.

Другие новости

Новости СМИ2

Главная страница сайта

Новости сайта

02.10.2013

Напоминаем, что на нашем новом сайте вы можете получить высокодетализированные прогнозы погоды по пунктам России, СНГ и мира (включающие важные для авиации метеовеличины, такие как направление и скорость ветра, видимость, явления погоды, количество и форма облачности, нижняя и верхняя граница облачности), а также ознакомиться с разнообразными материалами по авиационной метеорологии и подборкой полезных ссылок на эту тему.

Сайт Метеоцентр.Азия посвящён разработке технологий оптимизации авиаметеорологического обслуживания, включая проектирование и перспективное создание нескольких автоматизированных авиаметеорологических систем:
- система выпуска высокодетальных прогностических карт явлений погоды для нижнего воздушного пространства по России и ближнему зарубежью;
- система верификации прогнозов TAF (выпускаемых синоптиками официальных АМСГ РФ и ближнего зарубежья) и AUTOTAF (выпускаемых сайтом Метеоцентр.Азия) - выявление ошибок, онлайн-сопоставление с фактической погодой METAR, автоматическое внесение коррективов в прогнозы при резком отклонении фактической погоды от прогноза, подсчёт оправдываемости прогнозов по элементам и в целом;
- система обработки, анализа и отображения авиаметеорологической информации для применения провайдерами метеорологической информации.

Рекомендуем: Читайте продажа моторных яхт услуги.

Погода в Сухане - сегодня

Время (UTC), дата Ветер
(°,м/с) 
Видим.   Явления Облачность Т
(°С)
Тd
(°С)
f(%) Тe
(°С)
Pmin
(гПа)
dP
(гПа)
Po
(мм)
O2
(г/м3)
Тmin Tmax R s Состояние
почвы
06 24.02.17 тихо ()   20000 м    1/0 верхняя 
[Cs]
-33.4 -36.2 76 -33  1018.2  -1.5  755  349           
09 24.02.17 тихо ()   20000 м    ясно 
-32.7 -35.7 75 -33  1016.9  -1.5  754  347           
15 24.02.17 тихо ()   20000 м    ясно 
-36.4 -38.7 79 -36  1013  -2.4  751  351           
18 24.02.17 тихо ()   20000 м    ясно 
-37.6 -39.9 79 -38  1010.6  -2.5  749  352           
21 24.02.17 тихо ()   20000 м  слаб. снег  10/0 верхняя 
[Cs]
-32.5 -34.8 80 -33  1007.3  -3.1  747  344           
00 25.02.17 тихо ()   20000 м  слаб. снег  10/0 средняя 
[As op]
-23.3 -25.8 80 -23  1005.2  -1.6  746  330  -37.6    41  равномерный
сухой снег
100% 
03 25.02.17 тихо ()   4000 м  слаб. снег  10/0 средняя 
[As op]
-19.9 -21.8 85 -20  1004.1  -0.9  745  326           
06 25.02.17 360 (С) 20000 м  слаб. снег  10/0 средняя 
[Ac As]
-17.2 -19.8 80 -17  1003.2  -0.7  745  322           
09 25.02.17 010 (С) 20000 м  {снег}  10/0 средняя 
[Ac As]
-18.7 -21.3 80 -21  1003.9  0.5  745  324           
18 25.02.17 360 (С) 20000 м  слаб. снег  10/0 средняя 
[As op]
-23 -25.5 80 -28  1006.5  0.8  747  330           
21 25.02.17 тихо ()   4000 м  слаб. снег  10/0 средняя 
[As op]
-23.2 -25.7 80 -23  1007.5  1.1  748  331           
00 26.02.17 360 (С) 20000 м  слаб. снег  10/0 средняя 
[As op]
-22.4 -24.9 80 -25  1008.3  748  330  -23.2    43  равномерный
сухой снег
100% 
03 26.02.17 030 (СВ) 20000 м  слаб. снег  10/0 средняя 
[Ac As]
-21 -22.6 87 -27  1009.8  1.5  750  329           
06 26.02.17 030 (СВ) 20000 м  позёмок{снег}  10/0 средняя, верхняя 
[Ac lent|Cs]
-21.9 -25.1 75 -26  1012  2.1  751  331           
09 26.02.17 360 (С) 20000 м  позёмок  9/0 средняя, верхняя 
[Ac lent|Cs]
-27.2 -30.3 75 -32  1015.8  3.6  754  339           
12 26.02.17 020 (С) 20000 м    3/0 средняя 
[Ac trans]
-32.2 -35.2 75 -36  1018.8  2.8  756  347    -21  0.8     
15 26.02.17 тихо ()   20000 м    ясно 
-32.9 -35.7 76 -33  1020.9  1.8  757  349           
18 26.02.17 360 (С) 20000 м    ясно 
-33.2 -36.1 75 -37  1022.6  1.6  758  350           
21 26.02.17 тихо ()   20000 м    3/0 верхняя 
[Cs]
-34.2 -37.1 75 -34  1024.4  1.8  760  352           
00 27.02.17 190 (Ю) 20000 м    10/0 средняя 
[Ac und]
-34 -36.8 76 -35  1025.6  1.2  761  352  -35.2      44  равномерный
сухой снег
100% 
03 27.02.17 220 (ЮЗ) 20000 м    10/0 средняя, верхняя 
[Ac As|Cc]
-31.2 -34.2 75 -32  1026.1  0.8  761  348           
06 27.02.17 020 (С) 20000 м  слаб. снег  9/0 средняя, верхняя 
[Ac As|Cs]
-26.7 -29.8 75 -32  1027.2  1.3  762  342           
09 27.02.17 350 (С) 20000 м  {снег}  6/0 средняя, верхняя 
[Ac As|Cs]
-27.7 -30.8 75 -28  1029.2  1.8  758  342           
12 27.02.17 тихо ()   20000 м  {снег}  ясно 
-34.4 -36.7 80 -34  1032.5  1.9  766  355    -26.7  0.0     
15 27.02.17 тихо ()   20000 м    ясно 
-38.2 -40.3 80 -38  1033.4  0.7  766  361           
Время (UTC), дата Ветер
(°,м/с) 
Видим.   Явления Облачность Т
(°С)
Тd
(°С)
f(%) Тe
(°С)
Pmin
(гПа)
dP
(гПа)
Po
(мм)
O2
(г/м3)
Тmin Tmax R s Состояние
почвы

Для получения пояснительной информации подведите курсор к названию столбца.

ПОГОДА в Сухане - архив

Всё, что Вы хотите узнать о погоде в Сухане - удобно и подробно!

Выберите нужную дату (начиная с 1 января 2015* года) и нажмите кнопку "Найти".
Будут отображены архивные сводки погоды по пункту Сухана, начиная с указанной даты.


Отображать данные в формате CSV (для использования в таблицах Excel)


Внимание! Наш архив погоды предназначен исключительно для личного некоммерческого использования в познавательных целях. Если Вам необходимы официальные справки о состоянии погоды (для производственных, юридических, коммерческих и т.п. целей), обращайтесь в органы Росгидромета.

*Примечание: данная дата относится к архиву по метеостанциям СССР (Россия, СНГ, Балтия).
Архив по метеостанциям Зарубежной Европы и Азии (кроме Китая) хранится 10 дней, по другим регионам земного шара (Китай, Африка, Америка, Австралия, Океания) - 1 день.

Сухана - район местоположения метеостанции


Название, широта, долгота, высота метеостанции:
Сухана 68.62°ш. 118.33°д. 77 м над ур. моря [Российская Федерация]

Дополнительная информация

В oтличие oт бoльшинства пoгoдных сайтoв мы публикуем пoдрoбную метеoинфoрмацию в детальнoм прoфессиoнальнoм фoрмате.

Характеристики температуры и влажнoсти вoздуха измеряются на высoте 2 м в тени вдали oт зданий и деревьев.
Скoрoсть ветра измеряется на высoте 10 м (на урoвне рoста челoвека скoрoсть ветра ниже в 1.5-2 раза). Если метеoстанция нахoдится в гoрoде или в лесу, тo скoрoсть ветра занижена на 2-4 м/с пo сравнению с oткрытым местoм. Скoрoсть ветра над акватoриями крупных рек и oзёр, а также на вершинах хoлмoв на 2-5 м/с выше, чем в oбычных услoвиях.
Атмoсфернoе давление в разных тoчках местнoсти мoжет значительнo oтличаться oт давления на метеoстанции, в зависимoсти oт услoвий рельефа (при пoдъёме на 10 м давление пoнижается примернo на 1 мм рт.ст.).